Date String (YYYY-MM-DD hh:mm:ss) UTC,Instrument flags,absolute air pressure of the measurement (hPa),sample flow rate (lpm),inlet stack bypass flow (lpm),air temperature of the measurement (°C),ambient temperature measured by the external sensor (°C),aerosol sample conditioner tube jacket temperature (°C),OPC LED temperature (°C),internal box temperature (°C),relative humidity of the measurement (%),span deviation,mass concentration of particles derived from Lorenz-Mie calculation of OPC scattering (μg/m³),mass concentration of particles derived from Lorenz-Mie calculation of OPC scattering (μg/m³),mass concentration of particles derived from Lorenz-Mie calculation of OPC scattering (μg/m³)
DateTimeUTC,F1_M11,P_M11,Q1_M11,Q2_M11,T1_M11,T2_M11,T3_M11,T4_M11,T5_M11,U1_M11,ZSPAN_M11,X2_M11,X0_M11,X1_M11
2023-08-20 17:00:00,SystemResetWarning,0837.2,4.97,000.00,032.2,024.9,000.0,039.7,030.7,35.6,0001.8,0013.88,0020.12,0012.82
2023-08-20 17:01:00,SystemResetWarning,0837.5,5.02,000.00,032.2,025.3,000.0,039.7,030.8,35.8,0002.0,0013.88,0020.35,0012.85
2023-08-20 17:02:00,SystemResetWarning,0837.2,5.00,000.00,032.4,025.7,000.0,039.7,031.0,35.6,0001.8,0013.92,0020.69,0012.87
2023-08-20 17:03:00,SystemResetWarning,0837.4,5.00,000.00,032.6,026.1,000.0,039.8,031.2,34.8,0001.6,0013.93,0021.05,0012.88
2023-08-20 17:04:00,SystemResetWarning,0837.4,4.98,000.00,032.8,026.4,000.0,039.8,031.3,34.2,0001.7,0013.91,0020.58,0012.86
2023-08-20 17:05:00,SystemResetWarning,0837.4,5.00,000.00,032.9,026.1,000.0,039.8,031.3,34.0,0001.6,0013.90,0020.42,0012.86
2023-08-20 17:06:00,SystemResetWarning,0837.3,5.00,000.00,033.0,024.9,000.0,039.7,031.1,33.8,0001.5,0013.87,0020.52,0012.86
2023-08-20 17:07:00,SystemResetWarning,0837.3,5.00,000.00,032.9,024.5,000.0,039.7,031.0,34.0,0001.7,0013.82,0020.03,0012.86
2023-08-20 17:08:00,SystemResetWarning,0837.2,5.01,000.00,032.8,024.7,000.0,039.7,030.8,34.6,0002.0,0013.87,0020.23,0012.87
2023-08-20 17:09:00,SystemResetWarning,0837.3,4.99,000.00,032.6,025.1,000.0,039.8,030.8,34.9,0002.0,0013.91,0020.83,0012.91
2023-08-20 17:10:00,SystemResetWarning,0837.2,5.03,000.00,032.5,025.5,000.0,039.9,030.8,34.9,0002.0,0013.93,0020.66,0012.94
2023-08-20 17:11:00,SystemResetWarning,0837.3,4.97,000.00,032.5,025.9,000.0,039.9,031.0,34.3,0002.2,0013.97,0020.33,0012.96
2023-08-20 17:12:00,SystemResetWarning,0837.4,5.01,000.00,032.5,026.2,000.0,039.9,031.1,34.5,0001.9,0014.02,0020.21,0012.97
2023-08-20 17:13:00,SystemResetWarning,0837.2,5.02,000.00,032.5,026.5,000.0,039.9,031.1,34.4,0001.9,0014.00,0020.37,0012.96
2023-08-20 17:14:00,SystemResetWarning,0837.2,5.00,000.00,032.5,025.6,000.0,039.8,030.9,34.2,0001.9,0014.01,0019.92,0012.96
2023-08-20 17:15:00,SystemResetWarning,0837.2,4.98,000.00,032.4,024.7,000.0,039.7,030.7,34.7,0001.8,0014.04,0020.19,0012.94
2023-08-20 17:16:00,SystemResetWarning,0837.2,5.02,000.00,032.3,024.6,000.0,039.6,030.7,34.7,0001.8,0014.05,0019.91,0012.93
2023-08-20 17:17:00,SystemResetWarning,0837.2,5.01,000.00,032.1,024.9,000.0,039.7,030.6,34.6,0001.8,0014.11,0020.16,0012.93
2023-08-20 17:18:00,SystemResetWarning,0837.2,4.98,000.00,031.9,025.3,000.0,039.7,030.6,35.4,0001.8,0014.15,0020.69,0012.94
2023-08-20 17:19:00,SystemResetWarning,0837.2,5.04,000.00,032.0,025.7,000.0,039.7,030.8,35.2,0001.6,0014.19,0021.19,0012.96
2023-08-20 17:20:00,SystemResetWarning,0837.2,4.95,000.00,032.1,026.0,000.0,039.7,031.0,34.9,0001.4,0014.20,0020.64,0012.96
2023-08-20 17:21:00,SystemResetWarning,0837.2,5.04,000.00,032.2,026.4,000.0,039.7,031.1,34.8,0001.1,0014.15,0020.95,0012.93
2023-08-20 17:22:00,SystemResetWarning,0837.2,4.97,000.00,032.4,026.2,000.0,039.7,031.1,34.5,0000.7,0014.14,0021.37,0012.91
2023-08-20 17:23:00,SystemResetWarning,0837.2,5.00,000.00,032.5,025.0,000.0,039.5,030.8,34.0,0000.9,0014.09,0021.71,0012.86
2023-08-20 17:24:00,SystemResetWarning,0837.2,5.00,000.00,032.4,024.5,000.0,039.5,030.8,34.2,0000.6,0014.05,0021.33,0012.83
2023-08-20 17:25:00,SystemResetWarning,0837.2,5.01,000.00,032.3,024.6,000.0,039.5,030.6,34.2,0000.4,0014.00,0021.93,0012.78
2023-08-20 17:26:00,SystemResetWarning,0837.2,5.01,000.00,032.1,025.0,000.0,039.5,030.6,34.5,0000.6,0013.95,0021.79,0012.76
2023-08-20 17:27:00,SystemResetWarning,0837.2,4.98,000.00,032.0,025.4,000.0,039.6,030.7,35.3,0001.0,0013.89,0021.47,0012.75
2023-08-20 17:28:00,SystemResetWarning,0837.2,5.02,000.00,032.1,025.8,000.0,039.6,030.8,34.7,0001.0,0013.85,0021.20,0012.74
2023-08-20 17:29:00,SystemResetWarning,0837.2,4.99,000.00,032.1,026.2,000.0,039.7,030.9,34.9,0001.3,0013.82,0020.65,0012.71
2023-08-20 17:30:00,SystemResetWarning,0837.2,5.01,000.00,032.1,026.4,000.0,039.7,031.0,34.5,0001.0,0013.74,0020.31,0012.66
2023-08-20 17:31:00,SystemResetWarning,0837.2,5.00,000.00,032.2,025.6,000.0,039.5,030.9,34.5,0001.0,0013.64,0020.50,0012.59
2023-08-20 17:32:00,SystemResetWarning,0837.2,4.98,000.00,032.1,024.5,000.0,039.4,030.7,34.5,0001.4,0013.58,0020.26,0012.53
2023-08-20 17:33:00,SystemResetWarning,0837.1,5.01,000.00,032.0,024.4,000.0,039.4,030.6,34.8,0001.6,0013.54,0019.87,0012.48
2023-08-20 17:34:00,SystemResetWarning,0837.0,4.99,000.00,031.8,024.7,000.0,039.4,030.4,35.2,0001.6,0013.51,0019.27,0012.47
2023-08-20 17:35:00,SystemResetWarning,0836.9,5.03,000.00,031.7,025.1,000.0,039.4,030.5,35.5,0002.0,0013.49,0019.26,0012.43
2023-08-20 17:36:00,SystemResetWarning,0836.9,4.99,000.00,031.9,025.5,000.0,039.4,030.8,35.5,0002.2,0013.47,0018.51,0012.43
2023-08-20 17:37:00,SystemResetWarning,0837.0,5.01,000.00,032.2,025.9,000.0,039.4,031.0,35.3,0002.2,0013.46,0018.24,0012.44
2023-08-20 17:38:00,SystemResetWarning,0837.0,4.99,000.00,032.4,026.2,000.0,039.5,031.1,34.0,0002.1,0013.46,0018.35,0012.42
2023-08-20 17:39:00,SystemResetWarning,0836.9,4.99,000.00,032.6,026.1,000.0,039.5,031.2,33.9,0002.1,0013.42,0018.86,0012.38
2023-08-20 17:40:00,SystemResetWarning,0836.9,5.00,000.00,032.7,025.0,000.0,039.4,030.9,33.9,0002.0,0013.35,0018.95,0012.33
2023-08-20 17:41:00,SystemResetWarning,0836.9,5.01,000.00,032.7,024.4,000.0,039.4,030.7,33.7,0002.0,0013.27,0018.74,0012.27
2023-08-20 17:42:00,SystemResetWarning,0837.0,5.00,000.00,032.5,024.5,000.0,039.4,030.6,33.3,0002.0,0013.25,0018.44,0012.24
2023-08-20 17:43:00,SystemResetWarning,0837.0,5.01,000.00,032.3,024.9,000.0,039.5,030.5,33.9,0001.8,0013.27,0018.92,0012.23
2023-08-20 17:44:00,SystemResetWarning,0836.9,5.00,000.00,032.2,025.3,000.0,039.6,030.6,34.7,0001.7,0013.23,0019.02,0012.20
2023-08-20 17:45:00,SystemResetWarning,0836.8,4.99,000.00,032.1,025.7,000.0,039.6,030.7,34.9,0001.6,0013.21,0019.44,0012.17
2023-08-20 17:46:00,SystemResetWarning,0836.8,4.99,000.00,032.0,026.1,000.0,039.7,030.8,35.4,0001.4,0013.17,0019.41,0012.15
2023-08-20 17:47:00,SystemResetWarning,0836.8,5.02,000.00,032.2,026.4,000.0,039.7,031.0,35.0,0001.2,0013.15,0019.45,0012.12
2023-08-20 17:48:00,SystemResetWarning,0836.8,4.97,000.00,032.4,025.6,000.0,039.6,031.0,34.0,0001.1,0013.07,0019.45,0012.06
2023-08-20 17:49:00,SystemResetWarning,0836.8,5.00,000.00,032.5,024.6,000.0,039.4,030.8,33.8,0000.9,0013.04,0019.40,0012.02
2023-08-20 17:50:00,SystemResetWarning,0836.8,5.00,000.00,032.5,024.5,000.0,039.4,030.7,34.2,0001.0,0013.00,0019.42,0011.96
2023-08-20 17:51:00,SystemResetWarning,0836.8,5.01,000.00,032.3,024.7,000.0,039.4,030.6,33.6,0001.0,0012.97,0018.94,0011.93
2023-08-20 17:52:00,SystemResetWarning,0836.8,5.00,000.00,032.1,025.1,000.0,039.5,030.6,34.0,0001.0,0012.98,0019.17,0011.92
2023-08-20 17:53:00,SystemResetWarning,0836.8,4.99,000.00,032.0,025.5,000.0,039.6,030.7,34.9,0001.0,0012.96,0018.95,0011.89
2023-08-20 17:54:00,SystemResetWarning,0836.8,5.00,000.00,032.0,025.9,000.0,039.6,030.8,35.2,0001.3,0012.89,0018.25,0011.86
2023-08-20 17:55:00,SystemResetWarning,0836.8,5.01,000.00,032.1,026.3,000.0,039.6,030.9,34.9,0001.5,0012.86,0018.34,0011.84
2023-08-20 17:56:00,SystemResetWarning,0836.8,4.98,000.00,032.2,026.2,000.0,039.6,031.0,34.1,0001.2,0012.80,0017.89,0011.80
2023-08-20 17:57:00,SystemResetWarning,0836.8,5.01,000.00,032.3,025.1,000.0,039.4,030.8,34.0,0001.1,0012.83,0018.10,0011.78
2023-08-20 17:58:00,SystemResetWarning,0836.8,5.01,000.00,032.3,024.4,000.0,039.4,030.7,34.2,0001.2,0012.83,0018.74,0011.76
2023-08-20 17:59:00,SystemResetWarning,0836.8,5.00,000.00,032.1,024.5,000.0,039.4,030.6,34.4,0001.3,0012.83,0018.69,0011.76
